Stündliche Wetter Kyuryag

Heute, 18 Mai, Dienstag

Zeit Temperatur Niederschläge Wind Luftdruck Luftfeuchtigkeit
00:00 +18°C° 0 mm 3 m/S 661 mmHg 46%
01:00 +17°C° 0 mm 3 m/S 661 mmHg 47%
02:00 +17°C° 0 mm 3 m/S 661 mmHg 48%
03:00 +16°C° 0 mm 2 m/S 661 mmHg 49%
04:00 +16°C° 0 mm 2 m/S 661 mmHg 53%
05:00 +16°C° 0 mm 2 m/S 661 mmHg 57%
06:00 +16°C° 0 mm 1 m/S 662 mmHg 61%
07:00 +18°C° 0 mm 2 m/S 662 mmHg 59%
08:00 +19°C° 0 mm 2 m/S 663 mmHg 57%
09:00 +21°C° 0 mm 3 m/S 663 mmHg 55%
10:00 +20°C° 0.8 mm 3 m/S 663 mmHg 60%
11:00 +20°C° 0.8 mm 4 m/S 663 mmHg 65%
12:00 +19°C° 0.8 mm 4 m/S 664 mmHg 70%
13:00 +18°C° 1.1 mm 3 m/S 664 mmHg 73%
14:00 +18°C° 1.1 mm 3 m/S 664 mmHg 77%
15:00 +17°C° 1.1 mm 2 m/S 664 mmHg 81%
16:00 +16°C° 0.3 mm 2 m/S 664 mmHg 82%
17:00 +16°C° 0.3 mm 1 m/S 664 mmHg 82%
18:00 +16°C° 0.3 mm 1 m/S 665 mmHg 82%
19:00 +15°C° 0 mm 1 m/S 665 mmHg 82%
20:00 +15°C° 0 mm 2 m/S 664 mmHg 81%
21:00 +14°C° 0 mm 2 m/S 664 mmHg 80%
22:00 +14°C° 0 mm 2 m/S 664 mmHg 77%
23:00 +14°C° 0 mm 2 m/S 664 mmHg 75%

Morgen, 19 Mai, Mittwoch

Zeit Temperatur Niederschläge Wind Luftdruck Luftfeuchtigkeit
00:00 +13°C° 0 mm 2 m/S 664 mmHg 72%
01:00 +13°C° 0 mm 2 m/S 664 mmHg 71%
02:00 +13°C° 0 mm 2 m/S 664 mmHg 70%
03:00 +13°C° 0 mm 2 m/S 664 mmHg 68%
04:00 +14°C° 0 mm 2 m/S 664 mmHg 66%
05:00 +15°C° 0 mm 2 m/S 664 mmHg 63%
06:00 +16°C° 0 mm 1 m/S 664 mmHg 60%
07:00 +17°C° 0 mm 2 m/S 664 mmHg 55%
08:00 +19°C° 0 mm 2 m/S 664 mmHg 50%
09:00 +21°C° 0 mm 2 m/S 664 mmHg 45%
10:00 +22°C° 0 mm 3 m/S 664 mmHg 46%
11:00 +24°C° 0 mm 3 m/S 664 mmHg 46%
12:00 +24°C° 0 mm 3 m/S 664 mmHg 46%
13:00 +24°C° 0 mm 3 m/S 664 mmHg 48%
14:00 +24°C° 0 mm 3 m/S 664 mmHg 50%
15:00 +24°C° 0 mm 3 m/S 664 mmHg 52%
16:00 +23°C° 0.1 mm 2 m/S 664 mmHg 58%
17:00 +21°C° 0.1 mm 2 m/S 664 mmHg 64%
18:00 +21°C° 0.1 mm 1 m/S 664 mmHg 70%
19:00 +19°C° 0.2 mm 1 m/S 665 mmHg 74%
20:00 +18°C° 0.2 mm 1 m/S 666 mmHg 77%
21:00 +16°C° 0.2 mm 2 m/S 666 mmHg 80%
22:00 +15°C° 0.1 mm 2 m/S 666 mmHg 83%
23:00 +15°C° 0.1 mm 1 m/S 666 mmHg 86%

übermorgen, 20 Mai, Donnerstag

Zeit Temperatur Niederschläge Wind Luftdruck Luftfeuchtigkeit
00:00 +14°C° 0.1 mm 1 m/S 666 mmHg 88%
01:00 +14°C° 0 mm 1 m/S 667 mmHg 87%
02:00 +14°C° 0 mm 1 m/S 667 mmHg 86%
03:00 +14°C° 0 mm 1 m/S 667 mmHg 85%
04:00 +14°C° 0 mm 1 m/S 667 mmHg 83%
05:00 +14°C° 0 mm 1 m/S 668 mmHg 80%
06:00 +14°C° 0 mm 1 m/S 668 mmHg 78%
07:00 +15°C° 0 mm 2 m/S 668 mmHg 73%
08:00 +17°C° 0 mm 2 m/S 668 mmHg 68%
09:00 +18°C° 0 mm 3 m/S 668 mmHg 63%
10:00 +18°C° 0 mm 3 m/S 668 mmHg 62%
11:00 +18°C° 0 mm 3 m/S 668 mmHg 61%
12:00 +19°C° 0 mm 3 m/S 668 mmHg 60%
13:00 +19°C° 0 mm 3 m/S 668 mmHg 58%
14:00 +19°C° 0 mm 3 m/S 668 mmHg 57%
15:00 +20°C° 0 mm 3 m/S 668 mmHg 55%
16:00 +19°C° 0 mm 3 m/S 668 mmHg 59%
17:00 +18°C° 0 mm 2 m/S 668 mmHg 63%
18:00 +17°C° 0 mm 2 m/S 668 mmHg 68%
19:00 +16°C° 0 mm 2 m/S 668 mmHg 69%
20:00 +15°C° 0 mm 2 m/S 668 mmHg 71%
21:00 +13°C° 0 mm 2 m/S 667 mmHg 73%
22:00 +14°C° 0 mm 2 m/S 667 mmHg 68%
23:00 +14°C° 0 mm 2 m/S 667 mmHg 64%

21 Mai, Freitag

Zeit Temperatur Niederschläge Wind Luftdruck Luftfeuchtigkeit
00:00 +14°C° 0 mm 2 m/S 667 mmHg 59%
01:00 +14°C° 0 mm 2 m/S 667 mmHg 57%
02:00 +14°C° 0 mm 2 m/S 667 mmHg 54%
03:00 +14°C° 0 mm 2 m/S 667 mmHg 52%
04:00 +15°C° 0 mm 2 m/S 667 mmHg 52%
05:00 +18°C° 0 mm 1 m/S 668 mmHg 53%
06:00 +19°C° 0 mm 1 m/S 668 mmHg 53%
07:00 +19°C° 0 mm 2 m/S 668 mmHg 51%
08:00 +21°C° 0 mm 2 m/S 669 mmHg 49%
09:00 +22°C° 0 mm 3 m/S 669 mmHg 47%
10:00 +24°C° 0 mm 3 m/S 669 mmHg 46%
11:00 +25°C° 0 mm 3 m/S 669 mmHg 46%
12:00 +26°C° 0 mm 3 m/S 668 mmHg 46%
13:00 +26°C° 0 mm 3 m/S 668 mmHg 47%
14:00 +26°C° 0 mm 3 m/S 668 mmHg 48%
15:00 +26°C° 0 mm 3 m/S 668 mmHg 48%
16:00 +25°C° 0 mm 3 m/S 668 mmHg 54%
17:00 +23°C° 0 mm 2 m/S 668 mmHg 60%
18:00 +22°C° 0 mm 1 m/S 667 mmHg 65%
19:00 +21°C° 0 mm 1 m/S 667 mmHg 63%
20:00 +19°C° 0 mm 2 m/S 667 mmHg 61%
21:00 +18°C° 0 mm 2 m/S 667 mmHg 59%
22:00 +18°C° 0 mm 2 m/S 667 mmHg 54%
23:00 +18°C° 0 mm 2 m/S 666 mmHg 50%

22 Mai, Samstag

Zeit Temperatur Niederschläge Wind Luftdruck Luftfeuchtigkeit
00:00 +18°C° 0 mm 3 m/S 666 mmHg 45%
01:00 +18°C° 0 mm 3 m/S 666 mmHg 44%
02:00 +18°C° 0 mm 3 m/S 666 mmHg 42%
03:00 +18°C° 0 mm 3 m/S 665 mmHg 41%
04:00 +19°C° 0 mm 2 m/S 666 mmHg 42%
05:00 +19°C° 0 mm 2 m/S 666 mmHg 44%
06:00 +20°C° 0 mm 2 m/S 666 mmHg 46%
07:00 +23°C° 0 mm 2 m/S 666 mmHg 43%
08:00 +25°C° 0 mm 2 m/S 666 mmHg 39%
09:00 +27°C° 0 mm 2 m/S 666 mmHg 36%
10:00 +28°C° 0 mm 2 m/S 666 mmHg 37%
11:00 +28°C° 0 mm 3 m/S 666 mmHg 38%
12:00 +29°C° 0 mm 3 m/S 666 mmHg 39%
13:00 +29°C° 0 mm 3 m/S 666 mmHg 39%
14:00 +29°C° 0 mm 3 m/S 666 mmHg 40%
15:00 +29°C° 0 mm 3 m/S 665 mmHg 40%
16:00 +27°C° 0 mm 2 m/S 665 mmHg 48%
17:00 +26°C° 0 mm 2 m/S 665 mmHg 55%
18:00 +25°C° 0 mm 1 m/S 664 mmHg 63%
19:00 +24°C° 0 mm 1 m/S 664 mmHg 62%
20:00 +23°C° 0 mm 2 m/S 664 mmHg 62%
21:00 +20°C° 0 mm 2 m/S 664 mmHg 61%
22:00 +20°C° 0 mm 3 m/S 664 mmHg 59%
23:00 +20°C° 0 mm 3 m/S 664 mmHg 57%

23 Mai, Sonntag

Zeit Temperatur Niederschläge Wind Luftdruck Luftfeuchtigkeit
00:00 +20°C° 0 mm 3 m/S 664 mmHg 55%
01:00 +19°C° 0 mm 3 m/S 664 mmHg 52%
02:00 +19°C° 0 mm 3 m/S 664 mmHg 49%
03:00 +19°C° 0 mm 2 m/S 664 mmHg 46%
04:00 +20°C° 0 mm 2 m/S 664 mmHg 46%
05:00 +21°C° 0 mm 2 m/S 665 mmHg 47%
06:00 +23°C° 0 mm 1 m/S 665 mmHg 48%
07:00 +24°C° 0 mm 2 m/S 666 mmHg 46%
08:00 +26°C° 0 mm 2 m/S 666 mmHg 44%
09:00 +28°C° 0 mm 3 m/S 666 mmHg 42%
10:00 +28°C° 0 mm 3 m/S 667 mmHg 42%
11:00 +28°C° 0 mm 3 m/S 667 mmHg 43%
12:00 +29°C° 0 mm 4 m/S 667 mmHg 43%
13:00 +28°C° 0.2 mm 3 m/S 667 mmHg 44%
14:00 +28°C° 0.2 mm 3 m/S 667 mmHg 44%
15:00 +27°C° 0.2 mm 3 m/S 667 mmHg 45%
16:00 +26°C° 0.3 mm 2 m/S 667 mmHg 50%
17:00 +25°C° 0.3 mm 2 m/S 667 mmHg 56%
18:00 +23°C° 0.3 mm 1 m/S 667 mmHg 62%
19:00 +21°C° 0 mm 2 m/S 667 mmHg 63%
20:00 +20°C° 0 mm 2 m/S 667 mmHg 63%
21:00 +19°C° 0 mm 2 m/S 666 mmHg 64%
22:00 +19°C° 0 mm 2 m/S 666 mmHg 63%
23:00 +19°C° 0 mm 2 m/S 666 mmHg 62%
Mehr zeigen

Wir brauchen deine Erlaubnis

Meteoprog und unser Service Anbieter werden persönliche Daten aufbewahren, so wie Cookies, Geräte Bezeichnung oder ähnliche Technologien von deinem Gerät und Prozess, so wie Persönliche Daten Inhalte und Werbungen, genauso wie social Media und den Verkehr zu analysieren.

  • Aufbewahrung und/oder Zugang zu deiner Geräte Informationen.

    Cookies, Geräte Bezeichnung oder andere Informationen, können aufbewahrt oder Zugang zu deinem Gerät erhalten, für den Grund, der oben angegeben wird.

  • Personalisierte Werbung und Inhalte, Messungen, Einblick in das Publikum und Produkt Entwicklung.

    Werbungen und Inhalte können personalisiert werden, basierend auf ein Profil. Mehr Daten können besser personalisierte Werbungen und Inhalte hinzufügen. Werbung und Inhalte können gezeigt und gemessen werden. Einblicke über das Publikum, welche die Werbung gesehen haben und den Inhalt, können abgeleitet werden. So wie Daten können genutzt werden, um es zu verbessern oder die Benutzer Erfahrung zu verbessern das System und die Software.

Wenn du “Ich stimme zu” klickst, erlaubst du uns, die Cookies zu benutzen die Geräte Bezeichnung, den Web oder ähnliche Technologien zu benutzen. Deine Settings, können in deinem Gerät bei deinem Browser geändert werden.

Für den bestimmten Zweck, berechtigten Interessen beruhen darauf, mehr als auf den Inhalt. Du kannst mehr darüber in unseren Privaten und Cookie Politik lesen.